Tracking 25689 objects as of 7-Jul-2022
HD Live streaming from Space Station
objects crossing your sky now

FENGYUN 1C DEB

Track FENGYUN 1C DEB now!
10-day predictions


NORAD ID: 36670
Int'l Code: 1999-025DYQ
Perigee: 764.4 km
Apogee: 827.3 km
Inclination: 98.7 °
Period: 100.6 minutes
Semi major axis: 7166 km
RCS: 0.014 m2 (small)
Launch date: May 10, 1999
Source: People's Republic of China (PRC)
Launch site: Taiyaun Space Center, China (TSC)

Note: This is SATELLITE DEBRIS
aabbcc
Your satellite tracking list
Your tracking list is empty




NASA's NSSDC Master Catalog

Two Line Element Set (TLE):
1 36670U 99025DYQ 22183.00340555  .00001345  00000-0  52373-3 0  9991
2 36670  98.7328 260.2547 0043872 174.2891 185.8800 14.30892208450953
Source of the keplerian elements: AFSPC